Tracking 25709 objects as of 23-May-2022
HD Live streaming from Space Station
objects crossing your sky now

FREGAT DEB

Track FREGAT DEB now!
10-day predictions


NORAD ID: 45964
Int'l Code: 2011-037FV
Perigee: 441.1 km
Apogee: 3,340.4 km
Inclination: 51.4 °
Period: 124.6 minutes
Semi major axis: 8261 km
RCS: Unknown
Launch date: July 18, 2011
Source: Commonwealth of Independent States (former USSR) (CIS)
Launch site: TYURATAM MISSILE AND SPACE COMPLEX (TTMTR)

Note: This is SATELLITE DEBRIS
aabbcc
Your satellite tracking list
Your tracking list is empty




NASA's NSSDC Master Catalog

Two Line Element Set (TLE):
1 45964U 11037FV  22142.71535956  .00061360  00000-0  13106-1 0  9990
2 45964  51.4224 338.3270 1754692 359.0980   0.6828 11.56097828 75768
Source of the keplerian elements: AFSPC